Weather in Poselok Askiz

Russia / Republic of Khakassia     53°07′56″N   90°26′03″E
temp.,
°C
wind,
m/s
gust,
m/s
humid.,
%
clouds,
%
prec.,
mm/h
press.,
hPa
HPBL,
m
31 july, sat
sat3101:00+14wsw358397 0.1 1013122
04:00+13wsw2288100 0.0 101425
07:00+15w117689 0.0 101577
10:00+20e025924 0.0 1016760
13:00+23ne43505 0.3 10141716
16:00+24ene43459 0.3 10141981
19:00+21e45575 0.7 1014811
22:00+15nne11813 0.0 101511
1 august, sun
sun101:00+14nnw22841 0.0 101511
04:00+13sw11870 0.0 101511
07:00+14ssw22830 0.0 101591
10:00+20ssw21600 0.0 1013607
13:00+23sse12450 0.0 10111603
16:00+25sse223982 0.0 10092199
19:00+17nw3374100 0.4 101158
22:00+17nw227460 0.8 101111
2 august, mon
mon201:00+14wnw11765 0.9 101011
04:00+13w11805 0.0 101012
07:00+15sw22771 0.1 101168
10:00+20s21615 0.1 1010508
13:00+24sse22444 0.1 10091527
16:00+25sse223718 0.0 10072071
19:00+24ese23475 0.0 1007113
22:00+18ne476949 0.0 1009252
3 august, tue
tue301:00+15nnw228135 0.0 100913
04:00+14wsw11857 0.0 100811
07:00+15sw117959 0.0 100884
10:00+20sw3461100 0.0 1008549
13:00+22ssw235783 0.6 1007628
16:00+24wsw565412 0.9 10051271
19:00+22wsw5866100 1.1 1005781
22:00+17wsw41085100 0.3 1007220
4 august, wed
wed401:00+14wsw489342 0.7 1007147
04:00+13wsw359234 0.9 100787
07:00+14sw3589100 0.9 1008154
10:00+20wsw586391 0.0 10071051
13:00+24w784131 0.0 10062337
16:00+24w78415 0.0 10062068
19:00+22w57535 0.0 1006817
22:00+15w228020 0.0 100724